Tracking 30101 objects as of 14-Dec-2024
HD Live streaming from Space Station
objects crossing your sky now

STARLINK-31812

Track STARLINK-31812 now!
10-day predictions
STARLINK-31812 is classified as:


NORAD ID: 59800
Int'l Code: 2024-093U
Perigee: 449.9 km
Apogee: 452.4 km
Inclination: 43.0 °
Period: 93.5 minutes
Semi major axis: 6822 km
RCS: Unknown
Launch date: May 18, 2024
Source: United States (US)
Launch site: AIR FORCE EASTERN TEST RANGE (AFETR)
Your satellite tracking list
Your tracking list is empty




NASA's NSSDC Master Catalog

Two Line Element Set (TLE):
1 59800U 24093U   24348.76543645  .00005420  00000-0  13686-3 0  9999
2 59800  42.9993 244.0266 0001846 263.9871  96.0775 15.40712948 33707
Source of the keplerian elements: AFSPC